Total_Precipitation_Accumulation
0.50 0.40 0.59 0.61 0.57 0.68 1.01 1.01 0.94 0.45 0.25 0.21 0.23 0.29 0.27 0.25 0.22 0.22 0.24 0.26 0.28 0.30 0.30 0.28 0.27 0.25 0.23 0.22 0.25 0.29 0.34 0.38 0.41 0.47 0.52 0.55 0.55 0.55 0.57 0.59 0.64 0.65 0.67 0.70
0.57 0.33 0.46 0.54 0.48 0.50 0.57 0.60 0.60 0.43 0.36 0.26 0.24 0.26 0.25 0.22 0.19 0.20 0.21 0.23 0.25 0.24 0.26 0.25 0.28 0.29 0.28 0.26 0.25 0.27 0.31 0.33 0.36 0.40 0.43 0.50 0.54 0.55 0.56 0.59 0.65 0.69 0.73 0.77
0.72 0.38 0.52 0.60 0.48 0.48 0.49 0.46 0.50 0.53 0.42 0.31 0.30 0.28 0.26 0.23 0.19 0.18 0.16 0.15 0.18 0.20 0.22 0.23 0.23 0.25 0.26 0.26 0.24 0.26 0.29 0.30 0.34 0.38 0.42 0.45 0.52 0.57 0.64 0.68 0.75 0.81 0.85 0.93
0.86 0.56 0.71 0.47 0.35 0.37 0.42 0.43 0.45 0.43 0.34 0.28 0.28 0.28 0.26 0.22 0.18 0.16 0.13 0.11 0.11 0.13 0.14 0.15 0.16 0.18 0.23 0.24 0.25 0.25 0.29 0.35 0.38 0.41 0.49 0.55 0.56 0.63 0.72 0.79 0.86 0.92 0.91 0.93
1.01 0.72 0.43 0.27 0.24 0.29 0.39 0.44 0.40 0.31 0.23 0.21 0.22 0.25 0.25 0.21 0.16 0.14 0.12 0.12 0.11 0.11 0.13 0.14 0.15 0.17 0.22 0.25 0.27 0.27 0.30 0.37 0.42 0.45 0.55 0.64 0.63 0.67 0.74 0.80 0.87 0.89 0.88 0.84
1.07 0.87 0.42 0.24 0.13 0.14 0.28 0.49 0.33 0.26 0.24 0.25 0.27 0.33 0.28 0.20 0.17 0.16 0.15 0.13 0.14 0.14 0.15 0.17 0.20 0.22 0.27 0.31 0.38 0.40 0.40 0.45 0.52 0.59 0.69 0.73 0.70 0.69 0.69 0.70 0.72 0.70 0.67 0.63
0.90 0.83 0.37 0.20 0.12 0.14 0.42 0.52 0.24 0.21 0.22 0.25 0.28 0.28 0.24 0.17 0.15 0.17 0.19 0.18 0.17 0.18 0.21 0.23 0.24 0.26 0.30 0.35 0.46 0.52 0.54 0.57 0.60 0.65 0.69 0.70 0.68 0.63 0.59 0.56 0.56 0.54 0.53 0.51
0.64 0.84 0.54 0.23 0.17 0.30 0.40 0.25 0.20 0.21 0.23 0.24 0.24 0.20 0.18 0.19 0.18 0.16 0.16 0.17 0.19 0.22 0.24 0.27 0.30 0.35 0.38 0.41 0.48 0.52 0.55 0.57 0.57 0.57 0.58 0.61 0.60 0.58 0.54 0.52 0.52 0.51 0.50 0.53
0.53 0.56 0.41 0.28 0.27 0.26 0.21 0.19 0.17 0.18 0.20 0.20 0.21 0.21 0.17 0.16 0.16 0.16 0.17 0.17 0.19 0.24 0.28 0.31 0.32 0.36 0.39 0.39 0.40 0.42 0.45 0.48 0.47 0.45 0.44 0.45 0.47 0.49 0.49 0.48 0.48 0.51 0.52 0.54
0.44 0.42 0.31 0.26 0.21 0.18 0.15 0.15 0.13 0.12 0.14 0.18 0.21 0.20 0.18 0.16 0.15 0.14 0.14 0.15 0.17 0.19 0.21 0.23 0.24 0.26 0.29 0.28 0.29 0.31 0.33 0.36 0.39 0.36 0.35 0.36 0.36 0.40 0.42 0.44 0.44 0.45 0.48 0.52
0.40 0.33 0.26 0.24 0.20 0.17 0.14 0.12 0.11 0.10 0.10 0.13 0.15 0.15 0.16 0.16 0.15 0.14 0.14 0.14 0.14 0.15 0.16 0.17 0.17 0.18 0.20 0.21 0.22 0.26 0.27 0.28 0.30 0.32 0.33 0.34 0.36 0.38 0.42 0.43 0.49 0.49 0.46 0.46
0.42 0.31 0.30 0.29 0.21 0.16 0.15 0.13 0.11 0.10 0.10 0.10 0.11 0.12 0.11 0.12 0.11 0.12 0.14 0.14 0.14 0.14 0.16 0.19 0.19 0.17 0.16 0.16 0.18 0.23 0.26 0.26 0.28 0.31 0.32 0.33 0.35 0.38 0.42 0.45 0.50 0.52 0.52 0.51
0.27 0.22 0.20 0.19 0.15 0.13 0.12 0.11 0.10 0.10 0.11 0.12 0.12 0.11 0.11 0.11 0.12 0.14 0.16 0.17 0.17 0.16 0.15 0.17 0.19 0.19 0.17 0.18 0.19 0.22 0.25 0.28 0.29 0.31 0.33 0.33 0.34 0.37 0.38 0.40 0.44 0.46 0.49 0.52
0.13 0.13 0.15 0.13 0.13 0.11 0.11 0.11 0.10 0.10 0.10 0.12 0.14 0.13 0.12 0.12 0.13 0.16 0.18 0.19 0.19 0.18 0.17 0.16 0.16 0.19 0.19 0.19 0.21 0.24 0.25 0.29 0.31 0.31 0.33 0.33 0.34 0.35 0.36 0.37 0.37 0.36 0.40 0.47
0.08 0.11 0.14 0.12 0.10 0.09 0.10 0.10 0.10 0.10 0.10 0.11 0.11 0.13 0.14 0.14 0.16 0.17 0.17 0.18 0.19 0.19 0.17 0.17 0.17 0.18 0.19 0.21 0.22 0.22 0.24 0.26 0.29 0.31 0.33 0.36 0.36 0.36 0.36 0.37 0.37 0.36 0.38 0.44
0.09 0.08 0.09 0.08 0.08 0.08 0.09 0.10 0.12 0.12 0.11 0.12 0.13 0.15 0.17 0.18 0.16 0.15 0.15 0.16 0.18 0.17 0.15 0.14 0.16 0.16 0.17 0.19 0.21 0.21 0.22 0.28 0.30 0.29 0.30 0.32 0.35 0.37 0.37 0.38 0.39 0.39 0.40 0.43
0.16 0.16 0.15 0.14 0.12 0.11 0.10 0.11 0.12 0.14 0.14 0.15 0.17 0.18 0.17 0.17 0.15 0.14 0.14 0.15 0.16 0.17 0.17 0.18 0.18 0.16 0.16 0.17 0.19 0.20 0.20 0.23 0.29 0.29 0.30 0.31 0.33 0.34 0.35 0.37 0.39 0.39 0.39 0.45
0.17 0.18 0.18 0.19 0.18 0.16 0.14 0.13 0.13 0.14 0.14 0.15 0.15 0.17 0.18 0.19 0.19 0.17 0.17 0.16 0.15 0.15 0.15 0.15 0.15 0.14 0.14 0.16 0.19 0.21 0.21 0.21 0.23 0.25 0.28 0.33 0.36 0.35 0.36 0.36 0.36 0.38 0.40 0.46
0.15 0.15 0.15 0.15 0.17 0.17 0.15 0.14 0.14 0.14 0.14 0.14 0.15 0.17 0.17 0.18 0.18 0.17 0.17 0.17 0.18 0.18 0.16 0.15 0.17 0.15 0.13 0.16 0.19 0.19 0.21 0.22 0.23 0.25 0.28 0.35 0.38 0.36 0.37 0.37 0.37 0.38 0.42 0.45
0.11 0.12 0.14 0.16 0.16 0.16 0.17 0.16 0.15 0.15 0.15 0.15 0.15 0.16 0.16 0.18 0.18 0.18 0.18 0.18 0.19 0.21 0.19 0.18 0.18 0.15 0.15 0.16 0.21 0.19 0.20 0.21 0.24 0.26 0.29 0.33 0.35 0.35 0.36 0.38 0.38 0.38 0.40 0.42
0.12 0.13 0.15 0.17 0.18 0.18 0.18 0.18 0.17 0.16 0.15 0.14 0.15 0.17 0.18 0.19 0.20 0.21 0.22 0.20 0.18 0.18 0.18 0.18 0.16 0.15 0.16 0.20 0.24 0.23 0.23 0.24 0.25 0.26 0.29 0.32 0.34 0.35 0.35 0.36 0.38 0.39 0.40 0.41
0.16 0.16 0.18 0.20 0.21 0.21 0.20 0.18 0.17 0.17 0.15 0.14 0.14 0.14 0.15 0.16 0.17 0.19 0.20 0.21 0.21 0.21 0.18 0.16 0.15 0.17 0.22 0.26 0.25 0.24 0.25 0.27 0.28 0.29 0.31 0.33 0.35 0.36 0.37 0.38 0.40 0.41 0.42 0.43
0.17 0.18 0.19 0.20 0.22 0.22 0.21 0.19 0.18 0.17 0.16 0.16 0.17 0.18 0.19 0.19 0.20 0.21 0.21 0.18 0.18 0.20 0.17 0.15 0.17 0.21 0.25 0.24 0.22 0.23 0.25 0.28 0.29 0.31 0.32 0.34 0.36 0.38 0.40 0.39 0.39 0.39 0.41 0.42
0.19 0.19 0.19 0.18 0.18 0.18 0.18 0.17 0.17 0.18 0.18 0.17 0.18 0.19 0.21 0.21 0.19 0.17 0.19 0.21 0.21 0.21 0.18 0.17 0.21 0.23 0.24 0.22 0.22 0.24 0.26 0.28 0.30 0.31 0.33 0.35 0.35 0.37 0.38 0.38 0.38 0.36 0.36 0.37
0.19 0.18 0.17 0.17 0.18 0.18 0.18 0.17 0.15 0.15 0.15 0.15 0.15 0.15 0.17 0.19 0.22 0.20 0.19 0.20 0.20 0.21 0.20 0.20 0.23 0.24 0.24 0.23 0.24 0.27 0.28 0.30 0.33 0.36 0.36 0.36 0.35 0.35 0.35 0.36 0.37 0.37 0.36 0.35
0.16 0.16 0.16 0.16 0.17 0.17 0.18 0.17 0.17 0.15 0.16 0.16 0.14 0.13 0.14 0.15 0.17 0.18 0.19 0.19 0.19 0.20 0.21 0.21 0.23 0.25 0.25 0.26 0.27 0.29 0.30 0.32 0.33 0.34 0.33 0.33 0.33 0.35 0.35 0.35 0.35 0.35 0.34 0.33
0.14 0.14 0.14 0.13 0.12 0.13 0.16 0.17 0.19 0.18 0.18 0.20 0.20 0.16 0.16 0.16 0.17 0.17 0.18 0.18 0.18 0.19 0.19 0.20 0.21 0.23 0.24 0.26 0.28 0.28 0.29 0.30 0.31 0.31 0.32 0.33 0.34 0.35 0.34 0.35 0.35 0.35 0.34 0.33